When you browse on this site, cookies collect data to enhance your experience and personalize the content and advertising you see.
Visit our Privacy Policy to learn more. By continuing to use the site, you agree to this use of cookies and data.
  • In Österreich
  • Länderverzeichnis
  • Für 7 Tage
  • Wassertemperatur
  • Wetterkarte
  • News
  • Widgets
  • user-avatar
    Anmelden

    Stündliche Wetter Albena

    Heute, 21 Februar, Freitag

    Zeit Temperatur Niederschläge Wind Luftdruck Luftfeuchtigkeit
    00:00 +2°C° 0 mm 5 m/S 748 mmHg 89%
    01:00 +1°C° 0 mm 5 m/S 748 mmHg 90%
    02:00 +1°C° 0 mm 5 m/S 748 mmHg 92%
    03:00 +1°C° 0 mm 5 m/S 748 mmHg 92%
    04:00 +1°C° 0 mm 5 m/S 749 mmHg 93%
    05:00 +1°C° 0 mm 5 m/S 749 mmHg 93%
    06:00 +1°C° 0 mm 5 m/S 749 mmHg 93%
    07:00 +1°C° 0 mm 5 m/S 749 mmHg 92%
    08:00 +1°C° 0 mm 5 m/S 749 mmHg 91%
    15:00 +5°C° 0 mm 3 m/S 749 mmHg 72%
    16:00 +5°C° 0 mm 3 m/S 749 mmHg 72%
    17:00 +6°C° 0 mm 2 m/S 750 mmHg 72%
    18:00 +6°C° 0 mm 2 m/S 750 mmHg 75%
    19:00 +5°C° 0 mm 2 m/S 750 mmHg 78%
    20:00 +5°C° 0 mm 1 m/S 750 mmHg 81%
    21:00 +5°C° 0 mm 1 m/S 750 mmHg 83%
    22:00 +5°C° 0 mm 1 m/S 750 mmHg 84%
    23:00 +4°C° 0 mm 1 m/S 750 mmHg 86%

    Morgen, 22 Februar, Samstag

    Zeit Temperatur Niederschläge Wind Luftdruck Luftfeuchtigkeit
    00:00 +5°C° 0.1 mm 1 m/S 750 mmHg 87%
    01:00 +5°C° 0.1 mm 1 m/S 750 mmHg 87%
    02:00 +4°C° 0.1 mm 2 m/S 750 mmHg 88%
    03:00 +4°C° 0 mm 2 m/S 750 mmHg 88%
    04:00 +3°C° 0 mm 2 m/S 750 mmHg 87%
    05:00 +3°C° 0 mm 2 m/S 750 mmHg 87%
    06:00 +2°C° 0 mm 3 m/S 751 mmHg 86%
    07:00 +2°C° 0 mm 3 m/S 751 mmHg 84%
    08:00 0°C° 0 mm 4 m/S 752 mmHg 83%
    09:00 +3°C° 0 mm 4 m/S 752 mmHg 80%
    10:00 +4°C° 0 mm 4 m/S 753 mmHg 76%
    11:00 +5°C° 0 mm 4 m/S 753 mmHg 72%
    12:00 +6°C° 0.1 mm 4 m/S 754 mmHg 69%
    13:00 +6°C° 0.1 mm 4 m/S 754 mmHg 66%
    14:00 +6°C° 0.1 mm 4 m/S 754 mmHg 63%
    15:00 +7°C° 0.1 mm 3 m/S 754 mmHg 64%
    16:00 +7°C° 0.1 mm 3 m/S 754 mmHg 65%
    17:00 +5°C° 0.1 mm 3 m/S 754 mmHg 66%
    18:00 +6°C° 0 mm 2 m/S 754 mmHg 70%
    19:00 +5°C° 0 mm 2 m/S 754 mmHg 74%
    20:00 +5°C° 0 mm 1 m/S 755 mmHg 78%
    21:00 +5°C° 0 mm 1 m/S 755 mmHg 79%
    22:00 +4°C° 0 mm 1 m/S 755 mmHg 80%
    23:00 +4°C° 0 mm 1 m/S 755 mmHg 82%

    übermorgen, 23 Februar, Sonntag

    Zeit Temperatur Niederschläge Wind Luftdruck Luftfeuchtigkeit
    00:00 +4°C° 0 mm 1 m/S 754 mmHg 81%
    01:00 +4°C° 0 mm 1 m/S 754 mmHg 81%
    02:00 +2°C° 0 mm 2 m/S 754 mmHg 81%
    03:00 +2°C° 0 mm 2 m/S 753 mmHg 82%
    04:00 +2°C° 0 mm 2 m/S 753 mmHg 83%
    05:00 +2°C° 0 mm 2 m/S 753 mmHg 84%
    06:00 +1°C° 0 mm 3 m/S 753 mmHg 83%
    07:00 +1°C° 0 mm 3 m/S 752 mmHg 82%
    08:00 +1°C° 0 mm 3 m/S 752 mmHg 81%
    09:00 +3°C° 0 mm 4 m/S 752 mmHg 72%
    10:00 +5°C° 0 mm 4 m/S 752 mmHg 63%
    11:00 +7°C° 0 mm 5 m/S 752 mmHg 54%
    12:00 +8°C° 0 mm 5 m/S 751 mmHg 51%
    13:00 +9°C° 0 mm 5 m/S 751 mmHg 47%
    14:00 +10°C° 0 mm 5 m/S 750 mmHg 44%
    15:00 +10°C° 0 mm 5 m/S 749 mmHg 47%
    16:00 +10°C° 0 mm 4 m/S 749 mmHg 49%
    17:00 +10°C° 0 mm 4 m/S 749 mmHg 52%
    18:00 +8°C° 0 mm 4 m/S 749 mmHg 57%
    19:00 +8°C° 0 mm 3 m/S 749 mmHg 61%
    20:00 +7°C° 0 mm 3 m/S 749 mmHg 66%
    21:00 +7°C° 0 mm 3 m/S 748 mmHg 68%
    22:00 +7°C° 0 mm 3 m/S 748 mmHg 69%
    23:00 +7°C° 0 mm 3 m/S 748 mmHg 71%

    24 Februar, Montag

    Zeit Temperatur Niederschläge Wind Luftdruck Luftfeuchtigkeit
    00:00 +7°C° 0 mm 3 m/S 747 mmHg 73%
    01:00 +5°C° 0 mm 3 m/S 747 mmHg 75%
    02:00 +5°C° 0 mm 4 m/S 746 mmHg 77%
    03:00 +5°C° 0 mm 4 m/S 745 mmHg 76%
    04:00 +5°C° 0 mm 4 m/S 744 mmHg 75%
    05:00 +5°C° 0 mm 4 m/S 743 mmHg 74%
    06:00 +6°C° 0 mm 4 m/S 743 mmHg 72%
    07:00 +6°C° 0 mm 5 m/S 742 mmHg 69%
    08:00 +7°C° 0 mm 5 m/S 742 mmHg 66%
    09:00 +9°C° 0 mm 7 m/S 741 mmHg 60%
    10:00 +11°C° 0 mm 9 m/S 741 mmHg 53%
    11:00 +13°C° 0 mm 11 m/S 741 mmHg 46%
    12:00 +13°C° 0 mm 11 m/S 741 mmHg 45%
    13:00 +12°C° 0 mm 12 m/S 741 mmHg 43%
    14:00 +12°C° 0 mm 13 m/S 741 mmHg 41%
    15:00 +11°C° 0 mm 11 m/S 742 mmHg 39%
    16:00 +9°C° 0 mm 10 m/S 743 mmHg 36%
    17:00 +8°C° 0 mm 9 m/S 744 mmHg 34%
    18:00 +7°C° 0 mm 9 m/S 746 mmHg 37%
    19:00 +6°C° 0 mm 9 m/S 747 mmHg 40%
    20:00 +5°C° 0 mm 9 m/S 748 mmHg 43%
    21:00 +4°C° 0 mm 8 m/S 749 mmHg 45%
    22:00 +4°C° 0 mm 7 m/S 750 mmHg 48%
    23:00 +3°C° 0 mm 6 m/S 751 mmHg 51%

    25 Februar, Dienstag

    Zeit Temperatur Niederschläge Wind Luftdruck Luftfeuchtigkeit
    00:00 +3°C° 0 mm 5 m/S 751 mmHg 53%
    01:00 +2°C° 0 mm 5 m/S 752 mmHg 55%
    02:00 +3°C° 0 mm 4 m/S 752 mmHg 57%
    03:00 +1°C° 0 mm 4 m/S 752 mmHg 60%
    04:00 +2°C° 0 mm 3 m/S 752 mmHg 64%
    05:00 +1°C° 0 mm 3 m/S 752 mmHg 67%
    06:00 +2°C° 0 mm 2 m/S 752 mmHg 67%
    07:00 +2°C° 0 mm 2 m/S 753 mmHg 67%
    08:00 +4°C° 0 mm 1 m/S 753 mmHg 67%
    09:00 +4°C° 0 mm 2 m/S 753 mmHg 61%
    10:00 +6°C° 0 mm 2 m/S 752 mmHg 54%
    11:00 +7°C° 0 mm 2 m/S 752 mmHg 47%
    12:00 +7°C° 0 mm 4 m/S 752 mmHg 47%
    13:00 +7°C° 0 mm 5 m/S 751 mmHg 47%
    14:00 +8°C° 0 mm 6 m/S 751 mmHg 47%
    15:00 +8°C° 0 mm 6 m/S 750 mmHg 50%
    16:00 +7°C° 0 mm 6 m/S 749 mmHg 53%
    17:00 +7°C° 0 mm 6 m/S 749 mmHg 56%
    18:00 +5°C° 0 mm 6 m/S 748 mmHg 61%
    19:00 +4°C° 0 mm 6 m/S 748 mmHg 65%
    20:00 +3°C° 0 mm 6 m/S 748 mmHg 70%
    21:00 +3°C° 0 mm 5 m/S 747 mmHg 70%
    22:00 +3°C° 0 mm 5 m/S 747 mmHg 69%
    23:00 +3°C° 0 mm 5 m/S 747 mmHg 69%

    26 Februar, Mittwoch

    Zeit Temperatur Niederschläge Wind Luftdruck Luftfeuchtigkeit
    00:00 +3°C° 0 mm 5 m/S 746 mmHg 68%
    01:00 +3°C° 0 mm 5 m/S 745 mmHg 68%
    02:00 +2°C° 0 mm 5 m/S 745 mmHg 67%
    03:00 +2°C° 0 mm 5 m/S 744 mmHg 68%
    04:00 +2°C° 0 mm 5 m/S 743 mmHg 68%
    05:00 +2°C° 0 mm 5 m/S 743 mmHg 69%
    06:00 +3°C° 0 mm 4 m/S 743 mmHg 70%
    07:00 +3°C° 0 mm 4 m/S 742 mmHg 71%
    08:00 +3°C° 0 mm 4 m/S 742 mmHg 72%
    09:00 +5°C° 0 mm 4 m/S 742 mmHg 67%
    10:00 +6°C° 0 mm 4 m/S 742 mmHg 62%
    11:00 +8°C° 0 mm 4 m/S 742 mmHg 57%
    12:00 +10°C° 0 mm 4 m/S 741 mmHg 53%
    13:00 +12°C° 0 mm 4 m/S 741 mmHg 50%
    14:00 +13°C° 0 mm 5 m/S 740 mmHg 47%
    15:00 +13°C° 0 mm 4 m/S 740 mmHg 50%
    16:00 +13°C° 0 mm 4 m/S 740 mmHg 53%
    17:00 +12°C° 0 mm 4 m/S 739 mmHg 56%
    18:00 +11°C° 0 mm 4 m/S 739 mmHg 60%
    19:00 +11°C° 0 mm 4 m/S 740 mmHg 65%
    20:00 +10°C° 0 mm 4 m/S 740 mmHg 69%
    21:00 +8°C° 0 mm 4 m/S 740 mmHg 73%
    22:00 +8°C° 0 mm 4 m/S 740 mmHg 76%
    23:00 +8°C° 0 mm 4 m/S 740 mmHg 80%
    Mehr zeigen